This is the latest recevied weather packets stored in our database for station/object NC4J. If no packets are shown the sender has not sent any weather packets the latest 10 day(s).
| Time | Temp. | Humidity | Pressure | Rain* | Wind** | Luminosity | Snow |
|---|---|---|---|---|---|---|---|
| 1777141032 | 15.56° C | 92% | 1012.8 hPa | 18.03 mm | - | 39 W/m² | - |
| 1777140729 | 15.56° C | 90% | 1012.6 hPa | 30.73 mm | - | 41 W/m² | - |
| 1777140425 | 16.11° C | 87% | 1013.1 hPa | 16.76 mm | - | 20 W/m² | - |
| 1777140123 | 17.22° C | 81% | 1012.6 hPa | 1.27 mm | - | 14 W/m² | - |
| 1777139821 | 17.78° C | 71% | 1012.5 hPa | 0 mm | - | 17 W/m² | - |
| 1777139517 | 18.33° C | 71% | 1012.3 hPa | 0 mm | - | 19 W/m² | - |
| 1777139216 | 18.33° C | 72% | 1012.1 hPa | 0 mm | - | 30 W/m² | - |
| 1777138915 | 18.33° C | 69% | 1012.1 hPa | 0 mm | - | 45 W/m² | - |
| 1777138610 | 18.33° C | 68% | 1012.1 hPa | 0 mm | - | 56 W/m² | - |
| 1777138306 | 18.89° C | 67% | 1012.1 hPa | 0 mm | - | 57 W/m² | - |
| 1777138003 | 19.44° C | 68% | 1012 hPa | 0 mm | - | 66 W/m² | - |
| 1777137699 | 20° C | 67% | 1012.1 hPa | 0 mm | - | 80 W/m² | - |
| 1777137395 | 20° C | 67% | 1012.1 hPa | 0 mm | - | 80 W/m² | - |
| 1777137092 | 20° C | 66% | 1011.9 hPa | 0 mm | - | 93 W/m² | - |
| 1777136789 | 20° C | 64% | 1012.2 hPa | 0 mm | - | 102 W/m² | - |
| 1777136486 | 20° C | 64% | 1011.9 hPa | 0 mm | - | 107 W/m² | - |
| 1777136184 | 20° C | 62% | 1012 hPa | 0 mm | - | 127 W/m² | - |
| 1777135880 | 20.56° C | 62% | 1012 hPa | 0 mm | - | 141 W/m² | - |
| 1777135576 | 20° C | 62% | 1012.2 hPa | 0 mm | - | 164 W/m² | - |
| 1777135272 | 20° C | 61% | 1012.3 hPa | 0 mm | - | 172 W/m² | - |
| 1777134970 | 20° C | 61% | 1012.4 hPa | 0 mm | - | 158 W/m² | - |
| 1777134667 | 20.56° C | 61% | 1012.4 hPa | 0 mm | - | 143 W/m² | - |
| 1777134362 | 20.56° C | 60% | 1012.3 hPa | 0 mm | - | 131 W/m² | - |
| 1777134059 | 20.56° C | 59% | 1012.3 hPa | 0 mm | - | 129 W/m² | - |
| 1777133756 | 20.56° C | 57% | 1012.3 hPa | 0 mm | - | 156 W/m² | - |
* Rain latest hour (hover to see other rain measurements)
** Current wind speed in m/s (hover to see current wind gust speed)